| time (UTC) | temp F | wind direction | speed MPH | gust MPH | rain 1hr in | rain 24hr in | rain mn in | humidity % | barometer mb |
| 20260901100050 | 67 | 118 | 0.0 | 0.0 | 0.00 | 0.00 | 0.00 | 88 | 1025.7 |
| 20260901094536 | 67 | 118 | 0.0 | 0.0 | 0.00 | 0.00 | 0.00 | 88 | 1025.7 |
| 20260901093035 | 66 | 118 | 0.0 | 0.0 | 0.00 | 0.00 | 0.00 | 87 | 1025.7 |
| 20260901091534 | 66 | 118 | 0.0 | 0.0 | 0.00 | 0.00 | 0.00 | 87 | 1025.7 |
| 20260901090040 | 66 | 118 | 0.0 | 0.0 | 0.00 | 0.00 | 0.00 | 87 | 1025.7 |
| 20260901084534 | 66 | 118 | 0.0 | 0.0 | 0.00 | 0.00 | 0.00 | 86 | 1025.7 |
| 20260901083033 | 66 | 118 | 0.0 | 0.0 | 0.00 | 0.00 | 0.00 | 86 | 1025.7 |
| 20260901081533 | 66 | 118 | 0.0 | 0.0 | 0.00 | 0.00 | 0.00 | 85 | 1025.7 |
| 20260901080032 | 66 | 118 | 0.0 | 0.0 | 0.00 | 0.00 | 0.00 | 85 | 1025.7 |
| 20260901074533 | 66 | 118 | 0.0 | 0.0 | 0.00 | 0.00 | 0.00 | 84 | 1025.7 |
| 20260901073028 | 66 | 118 | 0.0 | 0.0 | 0.00 | 0.00 | 0.00 | 84 | 1025.7 |
| 20260901071529 | 66 | 118 | 0.0 | 0.0 | 0.00 | 0.00 | 0.00 | 84 | 1025.7 |
| 20260901070027 | 66 | 118 | 0.0 | 0.0 | 0.00 | 0.00 | 0.00 | 85 | 1025.7 |
| 20260901064535 | 65 | 117 | 0.0 | 0.0 | 0.00 | 0.00 | 0.00 | 85 | 1025.7 |
| 20260901063029 | 65 | 117 | 0.0 | 0.0 | 0.00 | 0.00 | 0.00 | 86 | 1025.7 |
| 20260901061525 | 65 | 117 | 0.0 | 0.0 | 0.00 | 0.00 | 0.00 | 87 | 1025.7 |
| 20260901060024 | 65 | 117 | 0.0 | 0.0 | 0.00 | 0.00 | 0.00 | 87 | 1025.7 |
| 20260901054525 | 65 | 117 | 0.0 | 0.0 | 0.00 | 0.00 | 0.00 | 88 | 1025.7 |
| 20260901053022 | 65 | 117 | 0.0 | 0.0 | 0.00 | 0.00 | 0.00 | 88 | 1025.7 |
| 20260901051522 | 65 | 117 | 0.0 | 0.0 | 0.00 | 0.00 | 0.00 | 88 | 1025.7 |
| 20260901050022 | 66 | 117 | 0.0 | 0.0 | 0.00 | 0.00 | 0.00 | 88 | 1025.7 |
| 20260901044520 | 66 | 117 | 0.0 | 0.0 | 0.00 | 0.00 | 0.00 | 89 | 1025.7 |
| 20260901043023 | 65 | 117 | 0.0 | 0.0 | 0.00 | 0.00 | 0.00 | 89 | 1025.7 |
| 20260901041518 | 65 | 117 | 0.0 | 0.0 | 0.00 | 0.00 | 0.00 | 89 | 1025.7 |
| 20260901040018 | 65 | 117 | 0.0 | 0.0 | 0.00 | 0.00 | 0.00 | 90 | 1025.7 |
| 20260901034515 | 65 | 117 | 0.0 | 0.0 | 0.00 | 0.00 | 0.00 | 90 | 1025.7 |
| 20260901033015 | 64 | 117 | 0.0 | 0.0 | 0.00 | 0.00 | 0.00 | 90 | 1025.7 |
| 20260901031514 | 64 | 117 | 0.0 | 0.0 | 0.00 | 0.00 | 0.00 | 90 | 1025.7 |
| 20260901030014 | 63 | 117 | 0.0 | 0.0 | 0.00 | 0.00 | 0.00 | 90 | 1025.7 |
| 20260901024525 | 63 | 117 | 0.0 | 0.0 | 0.00 | 0.00 | 0.00 | 89 | 1025.7 |
| 20260901023014 | 63 | 117 | 0.0 | 0.0 | 0.00 | 0.00 | 0.00 | 89 | 1025.7 |
| 20260901021516 | 63 | 117 | 0.0 | 0.0 | 0.00 | 0.00 | 0.00 | 88 | 1025.7 |
| 20260901020012 | 63 | 117 | 0.0 | 0.0 | 0.00 | 0.00 | 0.00 | 88 | 1025.7 |
| 20260901014512 | 64 | 117 | 0.0 | 0.0 | 0.00 | 0.00 | 0.00 | 87 | 1025.7 |
| 20260901013012 | 64 | 117 | 0.0 | 0.0 | 0.00 | 0.00 | 0.00 | 87 | 1025.7 |
| 20260901011512 | 64 | 117 | 0.0 | 0.0 | 0.00 | 0.00 | 0.00 | 86 | 1025.7 |
| 20260901010013 | 64 | 117 | 0.0 | 0.0 | 0.00 | 0.00 | 0.00 | 86 | 1025.7 |
| 20260901004527 | 64 | 117 | 0.0 | 0.0 | 0.00 | 0.00 | 0.00 | 85 | 1025.7 |
| 20260901003009 | 64 | 117 | 0.0 | 0.0 | 0.00 | 0.00 | 0.00 | 84 | 1025.7 |
| 20260901001522 | 65 | 117 | 0.0 | 0.0 | 0.00 | 0.00 | 0.00 | 83 | 1025.7 |
| 20260901000014 | 65 | 117 | 0.0 | 0.0 | 0.00 | 0.00 | 0.00 | 83 | 1025.7 |
| 20260831234511 | 66 | 117 | 0.0 | 0.0 | 0.00 | 0.00 | 0.00 | 82 | 1025.7 |
| 20260831233007 | 66 | 117 | 0.0 | 0.0 | 0.00 | 0.00 | 0.00 | 80 | 1025.7 |
| 20260831231507 | 67 | 117 | 0.0 | 0.0 | 0.00 | 0.00 | 0.00 | 79 | 1025.7 |
| 20260831230008 | 68 | 117 | 0.0 | 0.0 | 0.00 | 0.00 | 0.00 | 77 | 1025.7 |
| 20260831224506 | 68 | 117 | 0.0 | 0.0 | 0.00 | 0.00 | 0.00 | 75 | 1025.7 |
| 20260831223006 | 69 | 117 | 0.0 | 0.0 | 0.00 | 0.00 | 0.00 | 73 | 1025.7 |
| 20260831221509 | 69 | 116 | 0.0 | 1.0 | 0.00 | 0.00 | 0.00 | 71 | 1025.7 |
| 20260831220005 | 69 | 167 | 0.0 | 0.0 | 0.00 | 0.00 | 0.00 | 71 | 1025.7 |
| 20260831214512 | 69 | 156 | 0.0 | 5.0 | 0.00 | 0.00 | 0.00 | 72 | 1025.7 |
| 20260831213003 | 70 | 271 | 0.0 | 4.0 | 0.00 | 0.00 | 0.00 | 72 | 1025.7 |
| 20260831211503 | 71 | 125 | 0.0 | 0.0 | 0.00 | 0.00 | 0.00 | 72 | 1025.7 |
| 20260831210003 | 71 | 125 | 0.0 | 4.0 | 0.00 | 0.00 | 0.00 | 71 | 1025.7 |
| 20260831204501 | 72 | 272 | 0.0 | 4.0 | 0.00 | 0.00 | 0.00 | 69 | 1025.7 |
| 20260831203001 | 73 | 135 | 0.0 | 4.0 | 0.00 | 0.00 | 0.00 | 68 | 1025.7 |
| 20260831201503 | 73 | 141 | 0.0 | 6.0 | 0.00 | 0.00 | 0.00 | 67 | 1025.7 |
| 20260831200105 | 74 | 148 | 0.0 | 1.0 | 0.00 | 0.00 | 0.00 | 65 | 1025.7 |
| 20260831194559 | 74 | 158 | 0.0 | 1.0 | 0.00 | 0.00 | 0.00 | 67 | 1025.7 |
| 20260831193058 | 74 | 150 | 0.0 | 5.0 | 0.00 | 0.00 | 0.00 | 68 | 1025.7 |
| 20260831191556 | 74 | 294 | 0.0 | 8.0 | 0.00 | 0.00 | 0.00 | 68 | 1025.7 |
| 20260831190112 | 74 | 273 | 0.0 | 4.0 | 0.00 | 0.00 | 0.00 | 67 | 1025.7 |
| 20260831184555 | 74 | 281 | 0.0 | 0.0 | 0.00 | 0.00 | 0.00 | 69 | 1025.7 |
| 20260831183100 | 74 | 289 | 0.0 | 0.0 | 0.00 | 0.00 | 0.00 | 68 | 1025.7 |
| 20260831181553 | 74 | 142 | 0.0 | 2.0 | 0.00 | 0.00 | 0.00 | 67 | 1025.7 |
| 20260831180050 | 75 | 297 | 0.0 | 0.0 | 0.00 | 0.00 | 0.00 | 64 | 1025.7 |
| 20260831174549 | 76 | 298 | 0.0 | 6.0 | 0.00 | 0.00 | 0.00 | 64 | 1025.7 |
| 20260831173048 | 77 | 271 | 0.0 | 2.0 | 0.00 | 0.00 | 0.00 | 63 | 1025.7 |
| 20260831171547 | 79 | 232 | 0.0 | 5.0 | 0.00 | 0.00 | 0.00 | 59 | 1025.7 |
| 20260831170043 | 78 | 256 | 0.0 | 2.0 | 0.00 | 0.00 | 0.00 | 55 | 1025.7 |
| 20260831164549 | 78 | 181 | 0.0 | 0.0 | 0.00 | 0.00 | 0.00 | 54 | 1025.7 |
| 20260831163044 | 77 | 216 | 0.0 | 0.0 | 0.00 | 0.00 | 0.00 | 56 | 1025.7 |
| 20260831161542 | 77 | 180 | 0.0 | 5.0 | 0.00 | 0.00 | 0.00 | 56 | 1025.7 |
| 20260831160045 | 77 | 312 | 0.0 | 0.0 | 0.00 | 0.00 | 0.00 | 54 | 1025.7 |
| 20260831154542 | 77 | 26 | 0.0 | 4.0 | 0.00 | 0.00 | 0.00 | 57 | 1025.7 |
| 20260831153036 | 77 | 261 | 0.0 | 0.0 | 0.00 | 0.00 | 0.00 | 58 | 1025.7 |
| 20260831151537 | 76 | 261 | 0.0 | 0.0 | 0.00 | 0.00 | 0.00 | 54 | 1025.7 |
| 20260831150030 | 75 | 261 | 0.0 | 1.0 | 0.00 | 0.00 | 0.00 | 60 | 1025.7 |
| 20260831144526 | 74 | 265 | 0.0 | 4.0 | 0.00 | 0.00 | 0.00 | 59 | 1025.7 |
| 20260831143027 | 73 | 224 | 0.0 | 4.0 | 0.00 | 0.00 | 0.00 | 57 | 1025.7 |
| 20260831141521 | 72 | 141 | 0.0 | 1.0 | 0.00 | 0.00 | 0.00 | 65 | 1025.7 |
| 20260831140025 | 70 | 139 | 0.0 | 0.0 | 0.00 | 0.00 | 0.00 | 70 | 1025.7 |
| 20260831134508 | 68 | 139 | 0.0 | 0.0 | 0.00 | 0.00 | 0.00 | 71 | 1025.7 |
| 20260831133004 | 66 | 141 | 0.0 | 0.0 | 0.00 | 0.00 | 0.00 | 74 | 1025.7 |
| 20260831131503 | 65 | 139 | 0.0 | 0.0 | 0.00 | 0.00 | 0.00 | 81 | 1025.7 |
| 20260831130002 | 63 | 139 | 0.0 | 0.0 | 0.00 | 0.00 | 0.00 | 84 | 1025.7 |
| 20260831124604 | 62 | 139 | 0.0 | 0.0 | 0.00 | 0.00 | 0.00 | 89 | 1025.7 |
| 20260831123100 | 61 | 139 | 0.0 | 0.0 | 0.00 | 0.00 | 0.00 | 91 | 1025.7 |
| 20260831121558 | 61 | 139 | 0.0 | 2.0 | 0.00 | 0.00 | 0.00 | 93 | 1025.7 |
| 20260831120059 | 60 | 137 | 0.0 | 0.0 | 0.00 | 0.00 | 0.00 | 94 | 1025.7 |
| 20260831114555 | 59 | 137 | 0.0 | 0.0 | 0.00 | 0.00 | 0.00 | 93 | 1025.7 |
| 20260831113111 | 59 | 137 | 0.0 | 0.0 | 0.00 | 0.00 | 0.00 | 93 | 1025.7 |
| 20260831111552 | 59 | 137 | 0.0 | 0.0 | 0.00 | 0.00 | 0.00 | 93 | 1025.7 |
| 20260831110052 | 59 | 137 | 0.0 | 0.0 | 0.00 | 0.00 | 0.00 | 93 | 1025.7 |
| 20260831104550 | 59 | 137 | 0.0 | 0.0 | 0.00 | 0.00 | 0.00 | 93 | 1025.7 |
| 20260831103052 | 59 | 137 | 0.0 | 0.0 | 0.00 | 0.00 | 0.00 | 92 | 1025.7 |
| 20260831101550 | 59 | 137 | 0.0 | 0.0 | 0.00 | 0.00 | 0.00 | 92 | 1025.7 |